Flight Track Log - Related Links

Times and Time Zones

All times are in EDT time to prevent confusion due to time zone crossing. See the TMC875 flight status page for this flight to view local times or setup timezone preferences in your user account.

Time Position Orientation Groundspeed Altitude Reporting Facility
EDT Latitude Longitude Course Direction KTS MPH feet Rate Location/Type
Thu 06:23:38 AM 41.8981 -78.6611 103° East 408 470 23,000  Level Cleveland Center
Thu 06:24:38 AM 41.9792 -78.6531 North 305 351 23,000  Level Cleveland Center
Thu 06:25:38 AM 41.8064 -78.6639 183° South 305 351 23,000  Level Cleveland Center
Thu 06:26:00 AM 41.7030 -78.0777 102° East  Level FlightAware Approximate
Thu 06:27:00 AM 41.6857 -77.9653 102° East  Level FlightAware Approximate
Thu 06:27:38 AM 41.8031 -78.7114 265° West 389 448 23,000  Level Cleveland Center
Thu 06:28:00 AM 41.6647 -77.8548 103° East  Level FlightAware Approximate
Thu 06:28:38 AM 41.7419 -78.6714 154° Southeast 209 241 23,000  Level Cleveland Center
Thu 06:29:38 AM 41.7358 -78.5547 94° East 121 139 15,400 -2,100 Descending Cleveland Center
Thu 06:30:38 AM 41.7167 -78.4300 102° East 244 281 18,800 1,950 Climbing Cleveland Center
Thu 06:31:38 AM 41.6953 -78.2833 101° East 325 374 19,300 1,250 Climbing Cleveland Center
Thu 06:32:38 AM 41.7231 -78.1211 77° East 389 448 21,300 2,320 Climbing Cleveland Center
Thu 06:32:53 AM 41.7303 -78.0728 79° East 394 453 22,200 1,417 Climbing New York Center
Thu 06:33:50 AM 41.7219 -77.8997 94° East 429 494 23,000 407 Climbing New York Center
Thu 06:34:51 AM 41.7108 -77.7344 95° East 445 512 23,000  Level New York Center
Thu 06:35:52 AM 41.7031 -77.5836 94° East 450 518 23,000  Level New York Center
Thu 06:36:53 AM 41.6928 -77.3964 94° East 445 512 23,000  Level New York Center
Thu 06:37:53 AM 41.6833 -77.2286 94° East 450 518 23,000  Level New York Center
Thu 06:38:51 AM 41.6561 -77.0733 103° East 455 524 23,000  Level New York Center
Thu 06:39:51 AM 41.6178 -76.9308 110° East 425 489 23,000  Level New York Center
Thu 06:40:52 AM 41.5792 -76.7886 110° East 411 473 23,000  Level New York Center
Thu 06:41:52 AM 41.5406 -76.6494 110° East 406 467 23,000  Level New York Center
Thu 06:42:52 AM 41.5036 -76.5103 109° East 401 461 23,000  Level New York Center
Thu 06:43:53 AM 41.4644 -76.3686 110° East 401 461 23,000  Level New York Center
Thu 06:44:51 AM 41.4286 -76.2411 111° Southeast 401 461 23,000  Level New York Center
Thu 06:45:52 AM 41.3872 -76.0994 111° Southeast 401 461 23,000 -397 Level New York Center
Thu 06:46:52 AM 41.3494 -75.9639 110° East 401 461 22,200 -1,500 Descending New York Center
Thu 06:47:52 AM 41.3119 -75.8228 109° East 396 456 20,000 -2,118 Descending New York Center
Thu 06:48:51 AM 41.2700 -75.6817 112° Southeast 406 467 18,000 -2,500 Descending New York Center
Thu 06:49:52 AM 41.2236 -75.5403 114° Southeast 389 448 15,000 -2,500 Descending New York Center
Thu 06:50:51 AM 41.1825 -75.4189 114° Southeast 389 448 13,000 -992 Descending New York Center
Thu 06:51:53 AM 41.1397 -75.2919 114° Southeast 381 438 13,000 -1,279 Level New York Center
Thu 06:52:53 AM 41.0964 -75.1653 114° Southeast 366 421 10,400 -2,746 Descending New York Center
Thu 06:53:51 AM 41.0608 -75.0583 114° Southeast 329 379 7,600 -2,269 Descending New York Center
Thu 06:54:52 AM 41.0289 -74.9628 114° Southeast 293 337 5,900 -1,180 Descending New York Center
Thu 06:55:53 AM 40.9947 -74.8644 115° Southeast 288 331 5,200 -942 Descending New York Center
Thu 06:56:53 AM 40.9578 -74.7908 124° Southeast 279 321 4,000 -915 Descending New York Center
Thu 06:57:51 AM 40.9150 -74.6978 121° Southeast 273 314 3,400 -555 Descending New York Center
Thu 06:58:52 AM 40.8781 -74.6186 122° Southeast 278 320 2,900 -267 Descending New York Center
Thu 06:59:21 AM 40.8500 -74.5667 126° Southeast 264 304 3,000 72 Climbing New York TRACON
Thu 07:00:15 AM 40.8167 -74.5000 123° Southeast 263 303 3,000  Level New York TRACON
Thu 07:01:15 AM 40.7833 -74.4167 118° Southeast 252 290 3,000 -316 Level New York TRACON
Thu 07:02:09 AM 40.7500 -74.3500 123° Southeast 239 275 2,400 -526 Descending New York TRACON
Thu 07:03:09 AM 40.7500 -74.2833 90° East 184 212 2,000 -298 Descending New York TRACON
Thu 07:04:10 AM 40.7500 -74.2167 90° East 190 219 1,800 -248 Descending New York TRACON
Thu 07:05:10 AM 40.7833 -74.1667 49° Northeast 163 188 1,500 -316 Descending New York TRACON
Thu 07:06:04 AM 40.8000 -74.1333 57° Northeast 141 162 1,200 -474 Descending New York TRACON
Thu 07:07:04 AM 40.8167 -74.0667 72° East 143 165 600 -600 Descending New York TRACON
Thu 07:09:00 AM 40.8500 -74.0500 79° East  Level FlightAware Approximate
Thu 07:16:00 AM 40.8501 -74.0608 79° East  Level Estimated

Login

Don't have an account? Register now (free) for customized features, flight alerts, and more!